Location: Moscow
(55.7500°N, 37.5830°E)
Time: 21:00:41
(UTC+03:00)

ISS - Pass Details

Date: 19 May 2021
Orbit: 417 x 422 km, 51.6° (Epoch: 16 June)

Event Time Altitude Azimuth Distance (km) Brightness Sun altitude
Rises 23:09:39 0° 263° (W) 2,368 0.2 -12.6°
Reaches altitude 10° 23:11:49 10° 256° (WSW) 1,504 -0.9 -12.7°
Maximum altitude 23:15:00 40° 185° (S) 635 -3.3 -12.8°
Enters shadow 23:17:25 16° 120° (ESE) 1,211 -1.8 -12.9°
